UAL42 KEWR-EDDF

Flight info

Callsign UAL42
Flight time N/A
Altitude 35000
Route MERIT DCT HFD DCT PUT DCT WITCH DCT ALLEX N379A ALLRY/M084F360 NATT RESNO/N0481F370 DCT NETKI DCT REVNU DCT BOFUM Q37 MALUD UL975 WAL M16 DOLAS DCT NAVPI DCT NOLRU DCT DIXAT DIXAT1D
Aircraft B77W/H-SDE1E2E3FGHIJ2J3J4J5M1RWXY/LB1D1

Departure

Time 2026-04-23 05:01
Airport Newark Liberty International Airport (KEWR)

Arrival

Time N/A
Airport Frankfurt Main Airport (EDDF)
Time Latitude Longitude Altitude Speed Heading
2026-04-23 04:37 40.68802 -74.17599 31 ft 0 kts 274°
2026-04-23 04:52 40.68802 -74.17598 31 ft 0 kts 274°
2026-04-23 04:52 40.68801 -74.17584 31 ft 2 kts 274°
2026-04-23 04:52 40.68799 -74.17561 31 ft 3 kts 293°
2026-04-23 04:53 40.68791 -74.17543 31 ft 3 kts 326°
2026-04-23 04:53 40.68776 -74.17535 31 ft 3 kts 356°
2026-04-23 04:53 40.68757 -74.17535 31 ft 2 kts
2026-04-23 04:53 40.68747 -74.17535 31 ft 1 kts 360°
2026-04-23 04:54 40.68746 -74.17535 31 ft 0 kts 360°
2026-04-23 04:55 40.68766 -74.17529 31 ft 6 kts 32°
2026-04-23 04:56 40.68765 -74.17486 31 ft 4 kts 131°
2026-04-23 04:56 40.68717 -74.17414 31 ft 13 kts 132°
2026-04-23 04:56 40.68607 -74.17421 31 ft 23 kts 202°
2026-04-23 04:56 40.68437 -74.17528 31 ft 27 kts 209°
2026-04-23 04:57 40.68298 -74.17628 31 ft 20 kts 207°
2026-04-23 04:57 40.68218 -74.17680 31 ft 19 kts 208°
2026-04-23 04:57 40.68073 -74.17811 31 ft 29 kts 222°
2026-04-23 04:57 40.67943 -74.18041 31 ft 25 kts 256°
2026-04-23 04:58 40.67890 -74.18092 31 ft 4 kts 147°
2026-04-23 04:58 40.67861 -74.18058 31 ft 10 kts 128°
2026-04-23 04:58 40.67797 -74.17959 31 ft 15 kts 178°
2026-04-23 04:58 40.67666 -74.18027 31 ft 22 kts 206°
2026-04-23 04:59 40.67560 -74.17980 31 ft 12 kts 105°
2026-04-23 04:59 40.67604 -74.17894 31 ft 17 kts 18°
2026-04-23 04:59 40.67645 -74.17877 31 ft 0 kts 25°
2026-04-23 05:00 40.67740 -74.17818 31 ft 46 kts 25°
2026-04-23 05:00 40.68282 -74.17475 32 ft 125 kts 26°
2026-04-23 05:00 40.69292 -74.16828 33 ft 194 kts 26°
2026-04-23 05:00 40.70614 -74.15984 328 ft 221 kts 26°
2026-04-23 05:01 40.71998 -74.15051 1237 ft 222 kts 28°
2026-04-23 05:01 40.73313 -74.14109 2349 ft 219 kts 32°
2026-04-23 05:01 40.74600 -74.12999 3187 ft 218 kts 37°
2026-04-23 05:01 40.75650 -74.11553 3839 ft 228 kts 49°
2026-04-23 05:02 40.76652 -74.09814 4373 ft 242 kts 53°
2026-04-23 05:02 40.77657 -74.07970 4891 ft 259 kts 52°
2026-04-23 05:02 40.78772 -74.05973 5413 ft 278 kts 51°
2026-04-23 05:02 40.79972 -74.03901 5961 ft 295 kts 50°
2026-04-23 05:03 40.81230 -74.01804 6932 ft 284 kts 47°
2026-04-23 05:03 40.82469 -73.99807 7741 ft 283 kts 46°
2026-04-23 05:03 40.83756 -73.97779 8237 ft 293 kts 45°
2026-04-23 05:03 40.85097 -73.95695 8781 ft 302 kts 44°
2026-04-23 05:04 40.86413 -73.93661 9566 ft 277 kts 43°
2026-04-23 05:04 40.87599 -73.91838 10076 ft 249 kts 41°
2026-04-23 05:04 40.88734 -73.90097 10578 ft 248 kts 41°
2026-04-23 05:04 40.89852 -73.88384 11075 ft 249 kts 41°
2026-04-23 05:05 40.90998 -73.86629 11585 ft 250 kts 41°
2026-04-23 05:05 40.92121 -73.84909 11995 ft 252 kts 41°
2026-04-23 05:05 40.93229 -73.83214 12364 ft 253 kts 42°
2026-04-23 05:05 40.94378 -73.81456 12835 ft 249 kts 43°
2026-04-23 05:06 40.95487 -73.79758 13290 ft 244 kts 44°
2026-04-23 05:06 40.96600 -73.78053 13574 ft 247 kts 41°
2026-04-23 05:06 40.97729 -73.76324 13836 ft 250 kts 41°
2026-04-23 05:06 40.98878 -73.74563 14096 ft 254 kts 40°
2026-04-23 05:07 41.00046 -73.72772 14354 ft 259 kts 40°
2026-04-23 05:07 41.01237 -73.70946 14612 ft 264 kts 40°
2026-04-23 05:07 41.02450 -73.69086 14873 ft 269 kts 39°
2026-04-23 05:07 41.03677 -73.67202 15132 ft 276 kts 40°
2026-04-23 05:08 41.04967 -73.65219 15408 ft 294 kts 40°
2026-04-23 05:08 41.06352 -73.63087 15697 ft 315 kts 41°
2026-04-23 05:08 41.07833 -73.60808 15974 ft 338 kts 42°
2026-04-23 05:08 41.09418 -73.58369 16250 ft 361 kts 44°
2026-04-23 05:09 41.11110 -73.55761 16518 ft 384 kts 44°
2026-04-23 05:09 41.12913 -73.52979 16782 ft 408 kts 45°
2026-04-23 05:09 41.14810 -73.50050 17043 ft 430 kts 44°
2026-04-23 05:09 41.16818 -73.46946 17324 ft 450 kts 43°
2026-04-23 05:10 41.18873 -73.43796 18363 ft 445 kts 43°
2026-04-23 05:10 41.20847 -73.40772 19720 ft 438 kts 42°
2026-04-23 05:10 41.22846 -73.37678 20455 ft 442 kts 43°
2026-04-23 05:10 41.24850 -73.34561 21210 ft 445 kts 43°
2026-04-23 05:11 41.26865 -73.31420 21968 ft 446 kts 43°
2026-04-23 05:11 41.28881 -73.28273 22721 ft 447 kts 43°
2026-04-23 05:11 41.30897 -73.25123 23472 ft 447 kts 43°
2026-04-23 05:11 41.32908 -73.21979 24229 ft 445 kts 42°
2026-04-23 05:12 41.34910 -73.18849 24979 ft 443 kts 42°
2026-04-23 05:12 41.36889 -73.15711 25729 ft 442 kts 44°
2026-04-23 05:12 41.38670 -73.12441 26471 ft 442 kts 49°
2026-04-23 05:12 41.40327 -73.08987 27221 ft 438 kts 53°
2026-04-23 05:13 41.41870 -73.05536 27963 ft 433 kts 54°
2026-04-23 05:13 41.43368 -73.02078 28665 ft 427 kts 54°
2026-04-23 05:13 41.44864 -72.98634 29022 ft 431 kts 54°
2026-04-23 05:14 41.47966 -72.91541 29066 ft 455 kts 53°
2026-04-23 05:14 41.49616 -72.87868 29066 ft 467 kts 52°
2026-04-23 05:14 41.51298 -72.84093 29079 ft 479 kts 53°
2026-04-23 05:14 41.52977 -72.80276 29080 ft 491 kts 53°
2026-04-23 05:15 41.54745 -72.76226 29082 ft 503 kts 53°
2026-04-23 05:15 41.58295 -72.68066 29083 ft 518 kts 53°
2026-04-23 05:16 41.61927 -72.59705 29082 ft 522 kts 54°
2026-04-23 05:16 41.65597 -72.51310 29087 ft 521 kts 53°
2026-04-23 05:17 41.69329 -72.43054 29082 ft 517 kts 52°
2026-04-23 05:17 41.73030 -72.34811 29080 ft 517 kts 53°
2026-04-23 05:18 41.76725 -72.26540 29078 ft 517 kts 53°
2026-04-23 05:18 41.80448 -72.18263 29077 ft 517 kts 52°
2026-04-23 05:19 41.84212 -72.09959 29076 ft 523 kts 52°
2026-04-23 05:19 41.87918 -72.01586 29060 ft 520 kts 52°
2026-04-23 05:20 41.91575 -71.93300 29060 ft 519 kts 52°
2026-04-23 05:20 41.95574 -71.85350 29064 ft 508 kts 43°
2026-04-23 05:21 42.00291 -71.78321 29064 ft 505 kts 39°
2026-04-23 05:21 42.05229 -71.71663 29056 ft 503 kts 37°
2026-04-23 05:22 42.10236 -71.65095 29067 ft 503 kts 37°
2026-04-23 05:22 42.15240 -71.58508 29066 ft 502 kts 37°
2026-04-23 05:23 42.20245 -71.51904 29052 ft 504 kts 38°
2026-04-23 05:23 42.25275 -71.45341 29067 ft 504 kts 37°
2026-04-23 05:24 42.30315 -71.38708 29079 ft 507 kts 37°
2026-04-23 05:24 42.35376 -71.32008 29078 ft 512 kts 37°
2026-04-23 05:25 42.39995 -71.25876 29063 ft 512 kts 38°
2026-04-23 05:25 42.45078 -71.19113 29075 ft 513 kts 37°
2026-04-23 05:26 42.50175 -71.12373 29077 ft 510 kts 37°
2026-04-23 05:26 42.55191 -71.05654 29074 ft 506 kts 37°
2026-04-23 05:27 42.60204 -70.98911 29076 ft 508 kts 38°
2026-04-23 05:27 42.65208 -70.92168 29069 ft 505 kts 38°
2026-04-23 05:28 42.69787 -70.84858 29050 ft 509 kts 48°
2026-04-23 05:28 42.73772 -70.76970 29016 ft 509 kts 54°
2026-04-23 05:29 42.77504 -70.68838 29001 ft 505 kts 55°
2026-04-23 05:29 42.81226 -70.60746 28998 ft 505 kts 55°
2026-04-23 05:30 42.84394 -70.53938 29000 ft 509 kts 54°
2026-04-23 05:30 42.88192 -70.45836 29008 ft 511 kts 54°
2026-04-23 05:31 42.92065 -70.37705 28999 ft 511 kts 55°
2026-04-23 05:31 42.95914 -70.29533 29010 ft 512 kts 53°
2026-04-23 05:32 42.99796 -70.21237 29049 ft 524 kts 53°
2026-04-23 05:32 43.03750 -70.12754 29051 ft 533 kts 53°
2026-04-23 05:33 43.07731 -70.04186 29069 ft 534 kts 53°
2026-04-23 05:33 43.11721 -69.95571 29061 ft 537 kts 54°
2026-04-23 05:34 43.15690 -69.86975 29046 ft 531 kts 54°
2026-04-23 05:34 43.19633 -69.78412 29058 ft 530 kts 52°
2026-04-23 05:35 43.23551 -69.69877 29050 ft 527 kts 53°
2026-04-23 05:35 43.27422 -69.61421 29016 ft 521 kts 55°
2026-04-23 05:36 43.31266 -69.52999 29030 ft 521 kts 54°
2026-04-23 05:36 43.35061 -69.44661 29022 ft 519 kts 54°
2026-04-23 05:37 43.38905 -69.36193 29024 ft 517 kts 53°
2026-04-23 05:37 43.42598 -69.28031 29035 ft 524 kts 54°
2026-04-23 05:38 43.46413 -69.19577 29013 ft 514 kts 55°
2026-04-23 05:38 43.50180 -69.11206 29028 ft 514 kts 53°
2026-04-23 05:39 43.53930 -69.02850 29044 ft 518 kts 53°
2026-04-23 05:39 43.57713 -68.94393 29039 ft 517 kts 53°
2026-04-23 05:40 43.61489 -68.85930 29036 ft 518 kts 53°
2026-04-23 05:40 43.65268 -68.77434 29030 ft 520 kts 54°
2026-04-23 05:41 43.69062 -68.68879 29032 ft 524 kts 54°
2026-04-23 05:41 43.72884 -68.60234 29046 ft 527 kts 53°
2026-04-23 05:42 43.76673 -68.51640 29038 ft 523 kts 54°
2026-04-23 05:42 43.80463 -68.43017 29018 ft 524 kts 55°
2026-04-23 05:43 43.84258 -68.34359 29032 ft 527 kts 55°
2026-04-23 05:43 43.88033 -68.25719 29035 ft 528 kts 55°
2026-04-23 05:44 43.91844 -68.16971 29049 ft 533 kts 54°
2026-04-23 05:44 43.95704 -68.08083 29056 ft 541 kts 55°
2026-04-23 05:45 43.99570 -67.99153 29039 ft 536 kts 56°
2026-04-23 05:45 44.03403 -67.90273 29052 ft 538 kts 55°
2026-04-23 05:46 44.07258 -67.81315 29046 ft 539 kts 55°
2026-04-23 05:46 44.11081 -67.72402 29041 ft 535 kts 54°
2026-04-23 05:47 44.14845 -67.63600 29027 ft 529 kts 56°
2026-04-23 05:47 44.18584 -67.54828 29019 ft 526 kts 57°
2026-04-23 05:48 44.22307 -67.46070 28993 ft 525 kts 54°
2026-04-23 05:48 44.26046 -67.37262 28993 ft 527 kts 54°
2026-04-23 05:49 44.29777 -67.28529 28995 ft 526 kts 55°
2026-04-23 05:49 44.33463 -67.19735 28996 ft 524 kts 56°
2026-04-23 05:50 44.37142 -67.10926 28997 ft 524 kts 56°
2026-04-23 05:50 44.40810 -67.02142 28997 ft 522 kts 55°
2026-04-23 05:51 44.44749 -66.93732 28995 ft 519 kts 50°
2026-04-23 05:51 44.49034 -66.85638 29010 ft 510 kts 50°
2026-04-23 05:52 44.53269 -66.77692 29004 ft 508 kts 50°
2026-04-23 05:52 44.57462 -66.69663 28994 ft 512 kts 51°
2026-04-23 05:53 44.61639 -66.61586 29000 ft 516 kts 51°
2026-04-23 05:53 44.65895 -66.53471 29003 ft 515 kts 50°
2026-04-23 05:54 44.70130 -66.45352 29012 ft 515 kts 50°
2026-04-23 05:54 44.74336 -66.37214 29016 ft 513 kts 50°
2026-04-23 05:55 44.78514 -66.29089 29027 ft 510 kts 50°
2026-04-23 05:55 44.82631 -66.21052 29025 ft 507 kts 50°
2026-04-23 05:56 44.86763 -66.12961 29036 ft 509 kts 50°
2026-04-23 05:56 44.90899 -66.04840 29052 ft 510 kts 50°
2026-04-23 05:57 44.95024 -65.96716 29058 ft 508 kts 51°
2026-04-23 05:57 44.99165 -65.88539 29059 ft 512 kts 51°
2026-04-23 05:58 45.03281 -65.80385 29055 ft 513 kts 51°
2026-04-23 05:58 45.07438 -65.72129 29057 ft 515 kts 52°
2026-04-23 05:59 45.11590 -65.63858 29058 ft 514 kts 52°
2026-04-23 05:59 45.15704 -65.55639 29046 ft 508 kts 51°
2026-04-23 06:00 45.19779 -65.47474 29061 ft 508 kts 52°
2026-04-23 06:00 45.20442 -65.46145 29060 ft 509 kts 52°